Weather History for Bonaire, Bonaire

Change the Weather History Date:

Saturday, October 6, 2012

  Actual Average Record
Temperature  
Mean Temperature 84 °F -  
Max Temperature 89 °F 88 °F 93 °F (2005)
Min Temperature 80 °F 81 °F 75 °F (2011)
Cooling Degree Days 20    
Growing Degree Days 34 (Base 50)    
Moisture  
Dew Point 76 °F    
Average Humidity 75    
Maximum Humidity 84    
Minimum Humidity 58    
Precipitation  
Precipitation 0.00 in - - ()
Sea Level Pressure  
Sea Level Pressure 29.81 in    
Wind  
Wind Speed 9 mph ()    
Max Wind Speed 12 mph    
Max Gust Speed -    
Visibility 6.2 miles    
Events      
Averages and records for this station are not official NWS values.
T = Trace of Precipitation, MM = Missing Value Source: Averaged Metar Reports

Daily Weather History Graph

Daily Weather History Graph

Search for Another Location

Airport:

Trip Planner

Search our weather history database for the weather conditions in past years. The results will help you decide how hot, cold, wet, or windy it might be!

Date:

Astronomy

Oct. 06, 2012 Rise Set
Actual Time 6:22 AM AST 6:19 PM AST
Civil Twilight 6:01 AM AST 6:40 PM AST
Nautical Twilight 5:36 AM AST 7:05 PM AST
Astronomical Twilight 5:11 AM AST 7:29 PM AST
Moon 11:15 PM AST (10/6) 11:29 AM AST (10/6)
Length of Visible Light 12h 39m
Length of Day
11h 57m
Waning Gibbous, 65% of the Moon is Illuminated
Oct 6
Waning Gibbous
Oct 8
Last Quarter
Oct 15
New
Oct 21
First Quarter
Oct 29
Full

Hourly Weather History & Observations

Time (AST) Temp. Heat Index Dew Point Humidity Pressure Visibility Wind Dir Wind Speed Gust Speed Precip Events Conditions
12:00 AM 82.4 °F 89.5 °F 75.2 °F 79% 29.83 in - North - - N/A   Unknown
1:00 AM 82.4 °F 89.5 °F 75.2 °F 79% 29.80 in - North - - N/A   Unknown
2:00 AM 81 °F - 76 °F 79%  in - ESE 11.5 mph - -   Clear
2:00 AM 80.6 °F 86.2 °F 75.2 °F 84% 29.80 in - North - - N/A   Unknown
3:00 AM 80.6 °F 86.2 °F 75.2 °F 84% 29.77 in - North - - N/A   Unknown
4:00 AM 80.6 °F 86.2 °F 75.2 °F 84% 29.77 in - North - - N/A   Unknown
5:00 AM 81 °F - 76 °F 80%  in - ESE 11.5 mph - -   Clear
5:00 AM 80.6 °F 86.2 °F 75.2 °F 84% 29.77 in - North - - N/A   Unknown
6:00 AM 80.6 °F 86.2 °F 75.2 °F 84% 29.80 in - North - - N/A   Unknown
8:00 AM 86 °F - 77 °F 67% 29.85 in 22 mi ESE 8.1 mph - -   Partly Cloudy
8:00 AM 86.0 °F 96.9 °F 77.0 °F 74% 29.83 in 6.2 mi ESE 8.1 mph - N/A   Scattered Clouds
9:00 AM 87.8 °F 99.7 °F 77.0 °F 70% 29.86 in 6.2 mi ESE 10.4 mph - N/A   Scattered Clouds
10:00 AM 87.8 °F 99.7 °F 77.0 °F 70% 29.86 in - ESE 11.5 mph - N/A   Unknown
11:00 AM 89 °F - 76 °F 58% 29.86 in 22 mi ESE 11.5 mph - -   Scattered Clouds
11:00 AM 87.8 °F 97.6 °F 75.2 °F 66% 29.86 in 6.2 mi ESE 10.4 mph - N/A   Partly Cloudy
12:00 PM 89.6 °F 98.2 °F 73.4 °F 59% 29.83 in 6.2 mi ESE 11.5 mph - N/A   Scattered Clouds
1:00 PM 87.8 °F 97.6 °F 75.2 °F 66% 29.80 in 6.2 mi East 11.5 mph - N/A   Partly Cloudy
2:00 PM 89 °F - 83 °F 78% 29.78 in 22 mi ESE 9.2 mph - -  
2:00 PM 87.8 °F 97.6 °F 75.2 °F 66% 29.77 in - North - - N/A   Unknown
3:00 PM 87.8 °F 99.7 °F 77.0 °F 70% 29.74 in 6.2 mi East 10.4 mph - N/A   Scattered Clouds
5:00 PM 85 °F - 74 °F 64%  in 6 mi ESE 11.5 mph - -   Clear
5:00 PM 86.0 °F 95.1 °F 75.2 °F 70% 29.74 in - North - - N/A   Unknown
6:00 PM 84.2 °F 92.3 °F 75.2 °F 74% 29.74 in 6.2 mi East 10.4 mph - N/A   Partly Cloudy
7:00 PM 84.2 °F 90.9 °F 73.4 °F 70% 29.77 in 6.2 mi East 9.2 mph - N/A   Partly Cloudy
8:00 PM 83 °F - 76 °F 74%  in 6 mi ESE 11.5 mph - -   Clear
8:00 PM 84.2 °F 94.1 °F 77.0 °F 79% 29.80 in - North - - N/A   Unknown
9:00 PM 82.4 °F 90.9 °F 77.0 °F 84% 29.83 in - North - - N/A   Unknown
10:00 PM 82.4 °F 90.9 °F 77.0 °F 84% 29.86 in - North - - N/A   Unknown
11:00 PM 82.4 °F 90.9 °F 77.0 °F 84% 29.86 in - North - - N/A   Unknown